Sturgis, MI

10:51 PM EDT on April 29, 2017 (GMT -0400)
Kirsch Municipal

Weather History for KIRS - August, 2013

Change the Weather History Date:

Friday, August 16, 2013

  Actual Average (KHAI) Record (KHAI)
Temperature  
Mean Temperature 62 °F -  
Max Temperature 75 °F 83 °F 92 °F (1956)
Min Temperature 50 °F 58 °F 42 °F (1976)
Degree Days  
Heating Degree Days 2    
Growing Degree Days 12 (Base 50)    
Moisture  
Dew Point 53 °F    
Average Humidity 74    
Maximum Humidity 100    
Minimum Humidity 44    
Precipitation  
Precipitation 0.00 in - - ()
Sea Level Pressure  
Sea Level Pressure 30.17 in    
Wind  
Wind Speed 1 mph (ENE)    
Max Wind Speed 7 mph    
Max Gust Speed -    
Visibility 9 miles    
Events      
Averages and records for this station are not official NWS values.
T = Trace of Precipitation, MM = Missing Value Source: NWS Daily Summary

Daily Weather History Graph

Daily Weather History Graph

Search for Another Location

Airport or City:

Trip Planner

Search our weather history database for the weather conditions in past years. The results will help you decide how hot, cold, wet, or windy it might be!

Date:

Astronomy

Aug. 16, 2013 Rise Set
Actual Time 6:51 AM EDT 8:39 PM EDT
Civil Twilight 6:21 AM EDT 9:09 PM EDT
Nautical Twilight 5:45 AM EDT 9:45 PM EDT
Astronomical Twilight 5:05 AM EDT 10:24 PM EDT
Moon 4:59 PM EDT (8/16) 1:51 AM EDT (8/16)
Length of Visible Light 14h 48m
Length of Day
13h 48m
Waxing Gibbous, 74% of the Moon is Illuminated
Aug 16
Waxing Gibbous
Aug 20
Full
Aug 28
Last Quarter
Sep 5
New
Sep 12
First Quarter

Hourly Weather History & Observations

Time (EDT) Temp. Dew Point Humidity Pressure Visibility Wind Dir Wind Speed Gust Speed Precip Events Conditions
12:14 AM 57.2 °F 55.4 °F 94% 30.14 in 10.0 mi Calm Calm - N/A   Clear
12:35 AM 55.4 °F 53.6 °F 94% 30.14 in 10.0 mi Calm Calm - N/A   Clear
12:55 AM 55.4 °F 55.4 °F 100% 30.14 in 10.0 mi Calm Calm - N/A   Clear
1:14 AM 53.6 °F 53.6 °F 100% 30.14 in 10.0 mi Calm Calm - N/A   Clear
1:55 AM 53.6 °F 53.6 °F 100% 30.14 in 10.0 mi Calm Calm - N/A   Clear
2:14 AM 53.6 °F 53.6 °F 100% 30.14 in 10.0 mi Calm Calm - N/A   Clear
2:35 AM 53.6 °F 51.8 °F 94% 30.14 in 7.0 mi Calm Calm - N/A   Clear
2:55 AM 53.6 °F 53.6 °F 100% 30.14 in 10.0 mi Calm Calm - N/A   Clear
3:14 AM 53.6 °F 53.6 °F 100% 30.15 in 7.0 mi Calm Calm - N/A   Clear
3:35 AM 53.6 °F 53.6 °F 100% 30.15 in 10.0 mi Calm Calm - N/A   Clear
3:55 AM 51.8 °F 51.8 °F 100% 30.15 in 7.0 mi Calm Calm - N/A   Clear
4:14 AM 51.8 °F 51.8 °F 100% 30.15 in 1.8 mi Calm Calm - N/A   Mist
4:35 AM 51.8 °F 50.0 °F 94% 30.15 in 7.0 mi Calm Calm - N/A   Clear
4:55 AM 51.8 °F 51.8 °F 100% 30.15 in 10.0 mi Calm Calm - N/A   Clear
5:14 AM 51.8 °F 51.8 °F 100% 30.15 in 5.0 mi Calm Calm - N/A   Clear
5:35 AM 51.8 °F 51.8 °F 100% 30.15 in 10.0 mi Calm Calm - N/A   Clear
5:55 AM 51.8 °F 51.8 °F 100% 30.15 in 10.0 mi Calm Calm - N/A   Clear
6:14 AM 51.8 °F 51.8 °F 100% 30.16 in 5.0 mi Calm Calm - N/A   Clear
6:35 AM 51.8 °F 51.8 °F 100% 30.16 in 5.0 mi Calm Calm - N/A   Clear
6:55 AM 50.0 °F 50.0 °F 100% 30.17 in 5.0 mi Calm Calm - N/A   Clear
7:14 AM 50.0 °F 50.0 °F 100% 30.17 in 3.0 mi Calm Calm - N/A   Clear
7:35 AM 51.8 °F 50.0 °F 94% 30.17 in 5.0 mi Calm Calm - N/A   Clear
7:55 AM 53.6 °F 51.8 °F 94% 30.17 in 7.0 mi Calm Calm - N/A   Clear
8:14 AM 55.4 °F 55.4 °F 100% 30.17 in 10.0 mi Calm Calm - N/A   Clear
8:35 AM 57.2 °F 57.2 °F 100% 30.18 in 10.0 mi Calm Calm - N/A   Clear
8:54 AM 60.8 °F 55.4 °F 82% 30.18 in 10.0 mi Calm Calm - N/A   Clear
9:15 AM 62.6 °F 55.4 °F 77% 30.19 in 10.0 mi Calm Calm - N/A   Clear
9:35 AM 64.4 °F 53.6 °F 68% 30.19 in 10.0 mi ENE 3.5 mph - N/A   Clear
9:54 AM 66.2 °F 53.6 °F 64% 30.19 in 10.0 mi ENE 4.6 mph - N/A   Clear
10:15 AM 66.2 °F 53.6 °F 64% 30.19 in 10.0 mi Calm Calm - N/A   Clear
10:35 AM 68.0 °F 51.8 °F 56% 30.19 in 10.0 mi ENE 3.5 mph - N/A   Clear
10:54 AM 69.8 °F 51.8 °F 53% 30.19 in 10.0 mi Calm Calm - N/A   Clear
11:15 AM 69.8 °F 51.8 °F 53% 30.19 in 10.0 mi NE 3.5 mph - N/A   Clear
11:35 AM 71.6 °F 51.8 °F 50% 30.19 in 10.0 mi Calm Calm - N/A   Clear
11:54 AM 71.6 °F 51.8 °F 50% 30.19 in 10.0 mi East 3.5 mph - N/A   Clear
12:15 PM 71.6 °F 50.0 °F 46% 30.19 in 10.0 mi Calm Calm - N/A   Clear
12:34 PM 73.4 °F 53.6 °F 50% 30.19 in 10.0 mi ENE 4.6 mph - N/A   Clear
12:55 PM 73.4 °F 51.8 °F 47% 30.19 in 10.0 mi Calm Calm - N/A   Scattered Clouds
1:15 PM 73.4 °F 51.8 °F 47% 30.19 in 10.0 mi East 4.6 mph - N/A   Scattered Clouds
1:34 PM 73.4 °F 53.6 °F 50% 30.19 in 10.0 mi ENE 4.6 mph - N/A   Scattered Clouds
1:55 PM 73.4 °F 50.0 °F 44% 30.18 in 10.0 mi Calm Calm - N/A   Scattered Clouds
2:15 PM 71.6 °F 51.8 °F 50% 30.18 in 10.0 mi East 3.5 mph - N/A   Scattered Clouds
2:34 PM 73.4 °F 50.0 °F 44% 30.18 in 10.0 mi Calm Calm - N/A   Scattered Clouds
2:55 PM 71.6 °F 51.8 °F 50% 30.18 in 10.0 mi ENE 4.6 mph - N/A   Scattered Clouds
3:15 PM 75.2 °F 51.8 °F 44% 30.17 in 10.0 mi North 6.9 mph - N/A   Scattered Clouds
3:34 PM 71.6 °F 51.8 °F 50% 30.17 in 10.0 mi NNE 3.5 mph - N/A   Mostly Cloudy
3:55 PM 75.2 °F 51.8 °F 44% 30.17 in 10.0 mi Calm Calm - N/A   Scattered Clouds
4:14 PM 73.4 °F 53.6 °F 50% 30.17 in 10.0 mi NE 6.9 mph - N/A   Scattered Clouds
4:35 PM 73.4 °F 51.8 °F 47% 30.17 in 10.0 mi NE 3.5 mph - N/A   Scattered Clouds
4:55 PM 73.4 °F 51.8 °F 47% 30.17 in 10.0 mi Calm Calm - N/A   Clear
5:14 PM 75.2 °F 51.8 °F 44% 30.17 in 10.0 mi Calm Calm - N/A   Scattered Clouds
5:35 PM 73.4 °F 51.8 °F 47% 30.17 in 10.0 mi NE 3.5 mph - N/A   Mostly Cloudy
5:55 PM 73.4 °F 51.8 °F 47% 30.17 in 10.0 mi Calm Calm - N/A   Scattered Clouds
6:14 PM 73.4 °F 51.8 °F 47% 30.17 in 10.0 mi ENE 4.6 mph - N/A   Clear
6:35 PM 73.4 °F 53.6 °F 50% 30.17 in 10.0 mi Calm Calm - N/A   Clear
6:54 PM 73.4 °F 53.6 °F 50% 30.17 in 10.0 mi Calm Calm - N/A   Clear
7:14 PM 73.4 °F 53.6 °F 50% 30.17 in 10.0 mi NNE 3.5 mph - N/A   Clear
7:35 PM 71.6 °F 53.6 °F 53% 30.17 in 10.0 mi Calm Calm - N/A   Clear
7:54 PM 71.6 °F 55.4 °F 57% 30.17 in 10.0 mi Calm Calm - N/A   Clear
8:15 PM 69.8 °F 53.6 °F 56% 30.18 in 10.0 mi Calm Calm - N/A   Clear
8:35 PM 68.0 °F 55.4 °F 64% 30.18 in 10.0 mi Calm Calm - N/A   Clear
8:54 PM 64.4 °F 57.2 °F 77% 30.18 in 10.0 mi Calm Calm - N/A   Clear
9:15 PM 62.6 °F 59.0 °F 88% 30.19 in 10.0 mi Calm Calm - N/A   Clear
9:34 PM 60.8 °F 55.4 °F 82% 30.19 in 10.0 mi Calm Calm - N/A   Clear
9:55 PM 60.8 °F 57.2 °F 88% 30.20 in 10.0 mi Calm Calm - N/A   Clear
10:15 PM 60.8 °F 57.2 °F 88% 30.20 in 10.0 mi Calm Calm - N/A   Clear
10:34 PM 57.2 °F 55.4 °F 94% 30.20 in 10.0 mi Calm Calm - N/A   Clear
10:55 PM 59.0 °F 57.2 °F 94% 30.20 in 10.0 mi Calm Calm - N/A   Clear
11:15 PM 57.2 °F 55.4 °F 94% 30.20 in 10.0 mi Calm Calm - N/A   Clear
11:34 PM 57.2 °F 57.2 °F 100% 30.20 in 10.0 mi Calm Calm - N/A   Clear
11:55 PM 55.4 °F 55.4 °F 100% 30.21 in 10.0 mi Calm Calm - N/A   Clear